Regional Weather Roundup
Issued by NWS Little Rock, AR

Home | Current Version | Previous Version | Text Only | Print | Product List | Glossary Off
Versions: 1 2 3 4 5 6 7 8 9 10 11 12 13 14 15 16 17 18 19 20 21 22 23 24 25 26 27 28 29 30 31 32 33 34 35 36 37 38 39 40 41 42 43 44 45 46 47 48 49 50

000
ASUS44 KLZK 262105
RWRLZK

WEATHER ROUNDUP FOR ARKANSAS
NATIONAL WEATHER SERVICE LITTLE ROCK AR
400 PM CDT MON JUN 26 2017

NOTE: "FAIR" INDICATES FEW OR NO CLOUDS BELOW 12,000 FEET WITH NO
SIGNIFICANT WEATHER AND/OR OBSTRUCTIONS TO VISIBILITY.

ARZ001-003-010-029-262200-
NORTHWEST ARKANSAS

CITY           SKY/WX    TMP DP  RH WIND       PRES   REMARKS
FAYETTEVILLE   SUNNY     82  54  37 SW7       30.13F
FORT SMITH     MOSUNNY   86  60  41 VRB5      30.08F HX  86
HARRISON       CLOUDY    79  64  60 N5        30.13F
BENTONVILLE    MOSUNNY   82  54  36 S7        30.13F
ROGERS         MOSUNNY   84  52  33 S8        30.13F
SILOAM SPGS    MOSUNNY   84  54  34 SW9       30.11F
HIGHFILL       SUNNY     85  53  33 S7        30.12F
SPRINGDALE     MOSUNNY   82  50  32 S9        30.14F
$$

ARZ004-005-016-262200-
NORTH CENTRAL ARKANSAS

CITY           SKY/WX    TMP DP  RH WIND       PRES   REMARKS
BATESVILLE     SUNNY     82  59  44 CALM      30.12F
FLIPPIN        MOSUNNY   81  55  41 N5        30.10F
MTN HOME       CLOUDY    78  59  51 CALM      30.12F
$$

ARZ040-041-262200-
WEST CENTRAL ARKANSAS

CITY           SKY/WX    TMP DP  RH WIND       PRES   REMARKS
MENA           CLOUDY    81  57  44 E3        30.13F
MOUNT IDA      CLOUDY    79  58  48 VRB3      30.10F
$$

ARZ009-017-025-026-028-262200-
NORTHEAST ARKANSAS

CITY           SKY/WX    TMP DP  RH WIND       PRES   REMARKS
JONESBORO      MOSUNNY   82  59  45 SE7       30.11F
WALNUT RIDGE   SUNNY     81  57  44 CALM      30.11F
BLYTHEVILLE    SUNNY     83  58  42 CALM      30.11F
$$

ARZ022-023-033-042-044-262200-
CENTRAL ARKANSAS

CITY           SKY/WX    TMP DP  RH WIND       PRES   REMARKS
LITTLE ROCK    CLOUDY    82  59  45 SE8       30.11F
N LITTLE ROCK    N/A     83  59  43 S5        30.10F
JACKSONVILLE   SUNNY     85  64  49 E5        30.10F HX  86
CONWAY           N/A     86  61  42 S7        30.09F HX  86
SEARCY         SUNNY     84  63  49 CALM      30.12F HX  85
HOT SPRINGS    CLOUDY    81  60  48 SE3       30.11F
RUSSELLVILLE   MOSUNNY   83  61  47 S6        30.09F
CLINTON        FAIR      82  61  47 SE6       30.11F
$$

ARZ036-262200-
EAST ARKANSAS

CITY           SKY/WX    TMP DP  RH WIND       PRES   REMARKS
WEST MEMPHIS   CLOUDY    84  59  42 CALM      30.09F
$$

ARZ050-053-066-070-073-262200-
SOUTHWEST ARKANSAS

CITY           SKY/WX    TMP DP  RH WIND       PRES   REMARKS
ARKADELPHIA    FAIR      82  63  52 CALM      30.10F
CAMDEN         SUNNY     86  59  39 NE5       30.08F HX  85
TEXARKANA      MOSUNNY   84  60  44 NE7       30.08F
EL DORADO      SUNNY     86  58  38 NE6       30.08F HX  85
DE QUEEN       CLOUDY    83  64  52 E7        30.07F
$$

ARZ056-057-069-262200-
SOUTHEAST ARKANSAS

CITY           SKY/WX    TMP DP  RH WIND       PRES   REMARKS
PINE BLUFF     MOSUNNY   82  57  42 E3        30.11F
STUTTGART      PTSUNNY  N/A N/A N/A CALM      30.12F
MONTICELLO     MOSUNNY   85  58  39 VRB6      30.09F

$$





USA.gov is the U.S. government's official web portal to all federal, state and local government web resources and services.